Weather History for KBML - September, 2013

Change the Weather History Date:

Tuesday, September 10, 2013

  Actual Average Record
Temperature  
Mean Temperature 54 °F -  
Max Temperature 64 °F 70 °F 90 °F (2002)
Min Temperature 43 °F 42 °F 33 °F (2005)
Degree Days  
Heating Degree Days 12    
Growing Degree Days 4 (Base 50)    
Moisture  
Dew Point 54 °F    
Average Humidity 90    
Maximum Humidity 97    
Minimum Humidity 80    
Precipitation  
Precipitation 0.08 in - - ()
Sea Level Pressure  
Sea Level Pressure 30.07 in    
Wind  
Wind Speed 0 mph (NNW)    
Max Wind Speed 4 mph    
Max Gust Speed -    
Visibility 9 miles    
Events Rain    
Averages and records for this station are not official NWS values.
T = Trace of Precipitation, MM = Missing Value Source: NWS Daily Summary

Daily Weather History Graph

Daily Weather History Graph

Search for Another Location

Airport or City:

Trip Planner

Search our weather history database for the weather conditions in past years. The results will help you decide how hot, cold, wet, or windy it might be!

Date:

Astronomy

Sep. 10, 2013 Rise Set
Actual Time 6:18 AM EDT 7:04 PM EDT
Civil Twilight 5:48 AM EDT 7:33 PM EDT
Nautical Twilight 5:13 AM EDT 8:08 PM EDT
Astronomical Twilight 4:36 AM EDT 8:45 PM EDT
Moon 11:54 AM EDT (9/10) 9:50 PM EDT (9/10)
Length of Visible Light 13h 45m
Length of Day
12h 46m
Waxing Crescent, 28% of the Moon is Illuminated
Sep 10
Waxing Crescent
Sep 12
First Quarter
Sep 19
Full
Sep 26
Last Quarter
Oct 4
New

Hourly Weather History & Observations

Time (EDT) Temp. Dew Point Humidity Pressure Visibility Wind Dir Wind Speed Gust Speed Precip Events Conditions
12:52 AM 45.0 °F 44.1 °F 97% 30.11 in 10.0 mi Calm Calm - N/A   Clear
1:52 AM 46.0 °F 45.0 °F 96% 30.11 in 10.0 mi Calm Calm - N/A   Clear
2:52 AM 46.0 °F 44.1 °F 93% 30.10 in 10.0 mi Calm Calm - N/A   Clear
3:52 AM 43.0 °F 42.1 °F 97% 30.10 in 10.0 mi Calm Calm - N/A   Clear
4:52 AM 43.0 °F 41.0 °F 93% 30.09 in 10.0 mi Calm Calm - N/A   Partly Cloudy
5:52 AM 44.1 °F 42.1 °F 93% 30.08 in 10.0 mi Calm Calm - N/A   Clear
6:52 AM 46.9 °F 46.0 °F 97% 30.09 in 10.0 mi Calm Calm - N/A   Overcast
7:52 AM 50.0 °F 46.9 °F 89% 30.09 in 10.0 mi Calm Calm - N/A   Overcast
8:52 AM 53.1 °F 48.9 °F 86% 30.08 in 10.0 mi Calm Calm - 0.00 in Rain Light Rain
9:52 AM 55.0 °F 50.0 °F 83% 30.07 in 10.0 mi Calm Calm - 0.00 in   Overcast
10:52 AM 57.0 °F 52.0 °F 83% 30.08 in 10.0 mi NNW 3.5 mph - N/A   Overcast
11:47 AM 57.2 °F 53.6 °F 88% 30.06 in 8.0 mi Calm Calm - 0.00 in Rain Light Rain
11:52 AM 57.0 °F 53.1 °F 87% 30.07 in 3.0 mi Calm Calm - 0.01 in Rain Rain
11:57 AM 57.2 °F 53.6 °F 88% 30.06 in 1.8 mi Calm Calm - 0.01 in Rain Rain
12:12 PM 55.4 °F 53.6 °F 94% 30.06 in 1.0 mi Calm Calm - 0.06 in Rain Rain
12:17 PM 55.4 °F 53.6 °F 94% 30.05 in 2.0 mi Calm Calm - 0.06 in Rain Light Rain
12:25 PM 55.4 °F 53.6 °F 94% 30.05 in 5.0 mi Calm Calm - 0.07 in Rain Light Rain
12:52 PM 57.0 °F 54.0 °F 89% 30.07 in 10.0 mi Calm Calm - 0.07 in   Overcast
1:01 PM 57.2 °F 55.4 °F 94% 30.05 in 10.0 mi Calm Calm - N/A   Overcast
1:52 PM 60.1 °F 57.0 °F 90% 30.06 in 10.0 mi Calm Calm - 0.00 in   Overcast
2:00 PM 60.8 °F 55.4 °F 82% 30.05 in 10.0 mi Calm Calm - N/A   Overcast
2:52 PM 60.1 °F 55.0 °F 83% 30.06 in 10.0 mi Calm Calm - N/A   Overcast
3:52 PM 62.1 °F 57.0 °F 84% 30.05 in 10.0 mi Calm Calm - N/A   Overcast
4:52 PM 64.0 °F 57.9 °F 80% 30.05 in 10.0 mi Calm Calm - N/A   Overcast
5:34 PM 64.4 °F 59.0 °F 83% 30.03 in 10.0 mi Calm Calm - N/A   Overcast
5:47 PM 64.4 °F 59.0 °F 83% 30.03 in 10.0 mi Calm Calm - N/A   Overcast
5:52 PM 64.0 °F 60.1 °F 87% 30.05 in 10.0 mi Calm Calm - N/A   Overcast
6:52 PM 63.0 °F 61.0 °F 93% 30.05 in 10.0 mi Calm Calm - N/A   Overcast
7:13 PM 62.6 °F 60.8 °F 94% 30.04 in 10.0 mi Calm Calm - N/A   Overcast
7:52 PM 62.1 °F 60.1 °F 93% 30.06 in 10.0 mi Calm Calm - N/A   Mostly Cloudy
8:52 PM 62.1 °F 60.1 °F 93% 30.07 in 10.0 mi Calm Calm - N/A   Overcast
9:52 PM 62.1 °F 60.1 °F 93% 30.07 in 10.0 mi Calm Calm - N/A   Overcast
10:26 PM 62.6 °F 60.8 °F 94% 30.07 in 10.0 mi Calm Calm - N/A   Overcast
10:52 PM 62.1 °F 60.1 °F 93% 30.06 in 10.0 mi Calm Calm - N/A   Overcast
11:52 PM 62.1 °F 60.1 °F 93% 30.06 in 10.0 mi Calm Calm - N/A   Overcast